Tarboro, NC

10:24 PM EST on December 02, 2016 (GMT -0500)
Tarboro-edgecombe

Weather History for KETC - February, 2013

Change the Weather History Date:

Monday, February 11, 2013

  Actual Average Record
Temperature  
Mean Temperature 54 °F -  
Max Temperature 63 °F 55 °F 77 °F (1960)
Min Temperature 44 °F 29 °F 12 °F (1989)
Degree Days  
Heating Degree Days 12    
Growing Degree Days 4 (Base 50)    
Moisture  
Dew Point 53 °F    
Average Humidity 85    
Maximum Humidity 94    
Minimum Humidity 62    
Precipitation  
Precipitation 0.02 in - - ()
Sea Level Pressure  
Sea Level Pressure 30.04 in    
Wind  
Wind Speed 6 mph (SSW)    
Max Wind Speed 14 mph    
Max Gust Speed 22 mph    
Visibility 9 miles    
Events Rain    
Averages and records for this station are not official NWS values.
T = Trace of Precipitation, MM = Missing Value Source: NWS Daily Summary

Daily Weather History Graph

Daily Weather History Graph

Search for Another Location

Airport or City:

Trip Planner

Search our weather history database for the weather conditions in past years. The results will help you decide how hot, cold, wet, or windy it might be!

Date:

Astronomy

Feb. 11, 2013 Rise Set
Actual Time 7:01 AM EST 5:47 PM EST
Civil Twilight 6:35 AM EST 6:14 PM EST
Nautical Twilight 6:04 AM EST 6:44 PM EST
Astronomical Twilight 5:35 AM EST 7:14 PM EST
Moon 7:29 AM EST (2/11) 7:37 PM EST (2/11)
Length of Visible Light 11h 39m
Length of Day
10h 46m
Waxing Crescent, 3% of the Moon is Illuminated
Feb 11
Waxing Crescent
Feb 17
First Quarter
Feb 25
Full
Mar 4
Last Quarter
Mar 11
New

Hourly Weather History & Observations

Time (EST) Temp. Windchill Dew Point Humidity Pressure Visibility Wind Dir Wind Speed Gust Speed Precip Events Conditions
12:15 AM 44.8 °F 41.6 °F 32.4 °F 62% 30.25 in 10.0 mi SE 5.8 mph - N/A   Overcast
12:35 AM 44.8 °F 41.0 °F 34.2 °F 66% 30.23 in 10.0 mi ESE 6.9 mph - N/A   Overcast
12:55 AM 45.0 °F 41.8 °F 36.1 °F 71% 30.23 in 10.0 mi SSE 5.8 mph - N/A   Overcast
1:15 AM 45.5 °F 43.2 °F 37.9 °F 75% 30.21 in 10.0 mi SSE 4.6 mph - N/A   Overcast
1:35 AM 46.4 °F 44.3 °F 39.6 °F 77% 30.21 in 10.0 mi SSE 4.6 mph - N/A   Overcast
1:55 AM 46.9 °F - 40.6 °F 79% 30.20 in 10.0 mi SSE 4.6 mph - N/A   Overcast
2:15 AM 47.5 °F - 41.5 °F 80% 30.19 in 10.0 mi SE 4.6 mph - N/A   Scattered Clouds
2:35 AM 48.2 °F - 42.1 °F 79% 30.18 in 10.0 mi Calm Calm - N/A   Scattered Clouds
2:55 AM 48.7 °F - 42.8 °F 80% 30.18 in 10.0 mi SE 3.5 mph - N/A   Mostly Cloudy
3:15 AM 49.6 °F - 43.7 °F 80% 30.16 in 10.0 mi SE 5.8 mph - N/A   Overcast
3:35 AM 50.2 °F - 44.1 °F 79% 30.15 in 10.0 mi Calm Calm - N/A   Overcast
3:55 AM 50.5 °F - 44.4 °F 80% 30.15 in 10.0 mi SSE 3.5 mph - N/A   Overcast
4:15 AM 51.1 °F - 45.0 °F 80% 30.14 in 10.0 mi SSE 3.5 mph - N/A   Overcast
4:35 AM 51.4 °F - 45.3 °F 80% 30.13 in 10.0 mi SE 4.6 mph - N/A   Overcast
4:55 AM 51.6 °F - 45.7 °F 80% 30.13 in 10.0 mi SE 3.5 mph - N/A   Overcast
5:15 AM 51.3 °F - 45.7 °F 81% 30.12 in 10.0 mi Calm Calm - N/A Rain Light Rain
5:35 AM 50.7 °F - 45.9 °F 83% 30.13 in 10.0 mi Calm Calm - N/A   Overcast
5:55 AM 50.7 °F - 46.2 °F 85% 30.13 in 10.0 mi Calm Calm - N/A   Overcast
6:15 AM 50.5 °F - 46.4 °F 86% 30.13 in 10.0 mi Calm Calm - N/A   Drizzle
6:35 AM 49.6 °F - 46.8 °F 90% 30.14 in 10.0 mi Calm Calm - N/A   Light Drizzle
6:55 AM 50.0 °F - 47.7 °F 92% 30.13 in 5.0 mi Calm Calm - N/A   Drizzle
7:15 AM 51.4 °F - 49.5 °F 93% 30.13 in 10.0 mi Calm Calm - N/A   Light Drizzle
7:35 AM 52.0 °F - 50.0 °F 93% 30.12 in 7.0 mi Calm Calm - 0.01 in Rain Light Rain
7:55 AM 52.3 °F - 50.2 °F 92% 30.12 in 7.0 mi SSE 3.5 mph - 0.01 in Rain Light Rain
8:15 AM 52.9 °F - 50.9 °F 93% 30.12 in 7.0 mi SSE 3.5 mph - N/A   Light Drizzle
8:35 AM 53.4 °F - 51.4 °F 93% 30.12 in 5.0 mi South 4.6 mph - N/A   Light Drizzle
8:55 AM 53.8 °F - 52.0 °F 94% 30.11 in 5.0 mi South 4.6 mph - N/A Rain Light Rain
9:15 AM 54.3 °F - 52.3 °F 93% 30.09 in 4.0 mi SSE 6.9 mph - 0.01 in   Light Drizzle
9:35 AM 55.2 °F - 53.4 °F 94% 30.08 in 5.0 mi South 5.8 mph - 0.01 in   Light Drizzle
9:55 AM 56.3 °F - 54.5 °F 94% 30.06 in 7.0 mi South 5.8 mph - 0.01 in   Light Drizzle
10:15 AM 58.1 °F - 55.8 °F 92% 30.07 in 10.0 mi South 13.8 mph 18.4 mph N/A   Overcast
10:35 AM 59.2 °F - 56.5 °F 91% 30.07 in 10.0 mi SSW 9.2 mph 17.3 mph N/A Rain Light Rain
10:55 AM 59.7 °F - 56.8 °F 90% 30.07 in 10.0 mi SSW 8.1 mph 17.3 mph N/A   Overcast
11:15 AM 60.3 °F - 57.2 °F 90% 30.06 in 10.0 mi SSW 10.4 mph 16.1 mph N/A   Overcast
11:35 AM 60.6 °F - 57.4 °F 89% 30.04 in 10.0 mi SSW 9.2 mph - N/A   Overcast
11:55 AM 60.8 °F - 57.7 °F 90% 30.02 in 10.0 mi SSW 11.5 mph 17.3 mph N/A   Overcast
12:15 PM 61.2 °F - 58.1 °F 90% 30.02 in 5.0 mi SW 10.4 mph 16.1 mph N/A   Overcast
12:35 PM 61.5 °F - 58.5 °F 90% 30.00 in 10.0 mi SSW 8.1 mph - N/A   Overcast
12:55 PM 61.9 °F - 58.8 °F 90% 30.00 in 5.0 mi SW 9.2 mph - N/A   Overcast
1:15 PM 61.9 °F - 59.0 °F 90% 29.98 in 7.0 mi SSW 9.2 mph - N/A   Overcast
1:35 PM 62.2 °F - 59.0 °F 89% 29.99 in 7.0 mi SSW 10.4 mph - N/A   Overcast
1:55 PM 62.4 °F - 59.2 °F 89% 29.99 in 7.0 mi SW 9.2 mph 16.1 mph N/A   Overcast
2:15 PM 62.6 °F - 59.4 °F 89% 29.98 in 2.5 mi SSW 10.4 mph 17.3 mph N/A   Overcast
2:35 PM 62.4 °F - 59.7 °F 91% 29.96 in 5.0 mi SW 10.4 mph - N/A   Overcast
2:55 PM 62.6 °F - 59.9 °F 91% 29.96 in 5.0 mi SW 11.5 mph - N/A   Overcast
3:15 PM 62.6 °F - 59.9 °F 91% 29.96 in 7.0 mi SSW 12.7 mph 19.6 mph N/A   Overcast
3:35 PM 63.0 °F - 59.9 °F 90% 29.95 in 10.0 mi SSW 9.2 mph 16.1 mph N/A   Overcast
3:55 PM 63.5 °F - 59.9 °F 88% 29.95 in 10.0 mi SW 12.7 mph 21.9 mph N/A   Overcast
4:15 PM 63.5 °F - 59.5 °F 87% 29.95 in 10.0 mi WSW 11.5 mph - N/A   Drizzle
4:35 PM 63.5 °F - 59.7 °F 87% 29.92 in 10.0 mi SSW 9.2 mph - N/A   Overcast
4:55 PM 63.5 °F - 59.4 °F 86% 29.92 in 10.0 mi SSW 9.2 mph 17.3 mph N/A   Overcast
5:55 PM 63.3 °F - 59.0 °F 86% 29.94 in 10.0 mi SW 5.8 mph - N/A   Overcast
6:15 PM 63.3 °F - 59.0 °F 86% 29.93 in 10.0 mi SSW 6.9 mph - N/A   Overcast
6:35 PM 63.0 °F - 58.8 °F 86% 29.94 in 10.0 mi SSW 6.9 mph - N/A   Mostly Cloudy
6:55 PM 63.0 °F - 58.6 °F 86% 29.94 in 10.0 mi SW 8.1 mph - N/A   Overcast
7:15 PM 63.0 °F - 58.5 °F 85% 29.93 in 10.0 mi SW 6.9 mph - N/A   Scattered Clouds
7:35 PM 63.1 °F - 58.3 °F 84% 29.93 in 10.0 mi SW 10.4 mph - N/A   Clear
7:55 PM 63.1 °F - 58.3 °F 84% 29.93 in 10.0 mi SW 10.4 mph - N/A   Clear
8:15 PM 63.3 °F - 57.9 °F 83% 29.94 in 10.0 mi WSW 9.2 mph - N/A   Clear
8:35 PM 63.3 °F - 57.4 °F 81% 29.93 in 10.0 mi WSW 8.1 mph 18.4 mph N/A   Clear
8:55 PM 63.1 °F - 57.2 °F 81% 29.93 in 10.0 mi SW 9.2 mph 16.1 mph N/A   Clear
9:15 PM 63.0 °F - 56.8 °F 80% 29.93 in 10.0 mi WSW 9.2 mph - N/A   Clear
9:35 PM 62.8 °F - 56.7 °F 80% 29.92 in 10.0 mi WSW 10.4 mph - N/A   Scattered Clouds
9:55 PM 62.6 °F - 56.1 °F 79% 29.92 in 10.0 mi WSW 9.2 mph 17.3 mph N/A   Scattered Clouds
10:15 PM 62.6 °F - 55.8 °F 78% 29.92 in 10.0 mi SW 9.2 mph - N/A   Clear
10:35 PM 61.9 °F - 55.6 °F 80% 29.92 in 10.0 mi SW 8.1 mph - N/A   Clear
10:55 PM 61.7 °F - 55.8 °F 81% 29.91 in 10.0 mi SW 9.2 mph - N/A   Clear
11:15 PM 61.2 °F - 55.9 °F 83% 29.91 in 10.0 mi SW 6.9 mph - N/A   Clear
11:35 PM 60.8 °F - 55.9 °F 84% 29.91 in 10.0 mi SW 8.1 mph - N/A   Clear
11:55 PM 60.8 °F - 55.8 °F 83% 29.91 in 10.0 mi WSW 9.2 mph - N/A   Clear